Погода в Старице

Погода в Старице : погода сейчас, прогноз погоды и архив. Всё, что Вы хотите узнать о погоде в Старице!

Поиск расширенной информации на нашем сайте:

Другие новости

Новости СМИ2

Главная страница сайта

Новости сайта

03.07.2017

Напоминаем, что на нашем специализированном сайте Метеоцентр.Азия вы можете получить высокодетализированные автоматические прогнозы погоды по пунктам России, СНГ и мира в авиационном формате (включающие направление и скорость ветра, видимость, явления погоды, количество и форму облачности, нижнюю и верхнюю границу облачности).

Рекомендуем: Описание укладка новогиреево тут.

Погода в Старице - сегодня

Время (UTC), дата Ветер
(°,м/с) 
Видим.   Явления Облачность Т
(°С)
Тd
(°С)
f(%) Тe
(°С)
Pmin
(гПа)
dP
(гПа)
Po
(мм)
O2
(г/м3)
Тmin Tmax R s Состояние
почвы
03 15.08.17 330 (СЗ) 10 км  туман поземный  ясно 
+10.5 +9.5 94 +12  1025.6  1.4  752  290  +10    0.1     
06 15.08.17 010 (С) 20000 м    ясно 
+15.8 +11.1 74 +19  1026.6  1.4  753  285  +10        мокрая 
09 15.08.17 020 (С) 20000 м    ясно 
+19.3 +9.1 52 +20  1027  0.7  754  282           
12 15.08.17 040 (СВ) 20000 м    1/0 верхняя 
[Ci fib]
+21 +7.5 42 +21  1026.8  0.1  754  281           
15 15.08.17 030 (СВ) 20000 м    ясно 
+20.4 +9 48 +20  1026.8  754  281           
21 15.08.17 тихо ()   10 км    ясно 
+9.3 +8.2 93 +9  1029  0.7  755  293           
00 16.08.17 310 (СЗ) 10 км  туман поземный  ясно 
+6.8 +6.1 95 +8  1029.7  0.4  755  296           
03 16.08.17 тихо ()   2000 м  туман  ясно 
+6.9 +6.3 96 +7  1029.8  0.1  755  296  +5.2         
06 16.08.17 090 (В) 20000 м  {туман}  ясно 
+16.6 +11.2 70 +21  1029.3  0.3  755  285  +5.2        влажная 
09 16.08.17 120 (ЮВ) 20000 м    1/1 2000 м средняя 
[Ac trans]
+20.5 +8.9 47 +21  1028.6  -0.4  755  281           
12 16.08.17 120 (ЮВ) 20000 м    1/1 2000 м средняя 
[Ac trans]
+21.6 +8.9 44 +22  1027.2  -1.3  754  280           
15 16.08.17 150 (ЮВ) 20000 м    ясно 
+21.5 +9.1 45 +22  1026.3  -0.9  753  280           
18 16.08.17 тихо ()   10 км    ясно 
+15.9 +12.3 79 +20  1026.3  -0.3  753  284    +22.3       
21 16.08.17 тихо ()   10 км  туман поземный  ясно 
+11.3 +10.3 94 +13  1026.9  0.1  753  290           
00 17.08.17 тихо ()   0500 м  туман  ясно 
+8.9 +8 94 +9  1027.2  0.1  753  293           
03 17.08.17 тихо ()   10 км  {туман}  9/9 600 м 
[Sc]
+11.4 +10.6 95 +13  1026.8  -0.2  753  289  +8.2         
06 17.08.17 170 (Ю) 20000 м  {туман}  ясно 
+19.5 +13.2 67 +27  1026  -0.2  753  281  +8.2        влажная 
09 17.08.17 140 (ЮВ) 20000 м    4/4 1000 м 
[Cu hum]
+23.1 +13.6 55 +29  1025.4  -0.3  753  277           
12 17.08.17 180 (Ю) 20000 м    8/8 600 м кучево-дожд. 
[Cb cap]
+23.2 +13.9 56 +30  1024.6  -0.8  752  277           
15 17.08.17 170 (Ю) 20000 м    6/3 2000 м средняя, верхняя 
[Ac trans|Ci fib]
+23.1 +12.9 53 +28  1023.8  -0.8  752  277           
18 17.08.17 150 (ЮВ) 10 км    6/0 верхняя 
[Ci fib]
+17.5 +14.2 81 +26  1024  -0.2  752  282    +24.8       
21 17.08.17 тихо ()   10 км  туман поземный  ясно 
+13.6 +12.5 93 +18  1024.5  0.2  752  286           
00 18.08.17 тихо ()   10 км  туман поземный  ясно 
+12.5 +11.6 94 +16  1024  -0.6  751  287           
03 18.08.17 тихо ()   10 км    4/3 2000 м средняя, верхняя 
[Ac trans|Ci fib]
+13.2 +12.1 93 +17  1023.4  -0.5  751  286  +11.6         
06 18.08.17 190 (Ю) 10 км    4/0 верхняя 
[Ci fib]
+21.3 +15.9 71 +32  1022.6  0.1  751  277  +11.6        влажная 
Время (UTC), дата Ветер
(°,м/с) 
Видим.   Явления Облачность Т
(°С)
Тd
(°С)
f(%) Тe
(°С)
Pmin
(гПа)
dP
(гПа)
Po
(мм)
O2
(г/м3)
Тmin Tmax R s Состояние
почвы

Для получения пояснительной информации подведите курсор к названию столбца.

ПОГОДА в Старице - архив

Всё, что Вы хотите узнать о погоде в Старице - удобно и подробно!

Выберите нужную дату (начиная с 1 января 2015* года) и нажмите кнопку "Найти".
Будут отображены архивные сводки погоды по пункту Старица, начиная с указанной даты.


Отображать данные в формате CSV (для использования в таблицах Excel)


Внимание! Наш архив погоды предназначен исключительно для личного некоммерческого использования в познавательных целях. Если Вам необходимы официальные справки о состоянии погоды (для производственных, юридических, коммерческих и т.п. целей), обращайтесь в органы Росгидромета.

*Примечание: данная дата относится к архиву по метеостанциям СССР (Россия, СНГ, Балтия).
Архив по метеостанциям Зарубежной Европы и Азии (кроме Китая) хранится 10 дней, по другим регионам земного шара (Китай, Африка, Америка, Австралия, Океания) - 1 день.

Старица - район местоположения метеостанции


Название, широта, долгота, высота метеостанции:
Старица 56.5°ш. 34.9°д. 181 м над ур. моря [Российская Федерация]

Дополнительная информация

В oтличие oт бoльшинства пoгoдных сайтoв мы публикуем пoдрoбную метеoинфoрмацию в детальнoм прoфессиoнальнoм фoрмате.

Характеристики температуры и влажнoсти вoздуха измеряются на высoте 2 м в тени вдали oт зданий и деревьев.
Скoрoсть ветра измеряется на высoте 10 м (на урoвне рoста челoвека скoрoсть ветра ниже в 1.5-2 раза). Если метеoстанция нахoдится в гoрoде или в лесу, тo скoрoсть ветра занижена на 2-4 м/с пo сравнению с oткрытым местoм. Скoрoсть ветра над акватoриями крупных рек и oзёр, а также на вершинах хoлмoв на 2-5 м/с выше, чем в oбычных услoвиях.
Атмoсфернoе давление в разных тoчках местнoсти мoжет значительнo oтличаться oт давления на метеoстанции, в зависимoсти oт услoвий рельефа (при пoдъёме на 10 м давление пoнижается примернo на 1 мм рт.ст.).